Regional Weather Roundup
Issued by NWS

Home | Current Version | Previous Version | Text Only | Print | Product List | Glossary Off
Versions: 1 2 3 4 5 6 7 8 9 10 11 12 13 14 15 16 17 18 19 20 21 22 23 24 25 26 27 28 29 30 31 32 33 34 35 36 37 38 39 40 41 42 43 44 45 46 47 48 49 50

000
ASUS45 KCYS 022110
RWRWY

WYOMING REGIONAL WEATHER ROUNDUP
NATIONAL WEATHER SERVICE CHEYENNE WY
300 PM MDT SAT MAY 02 2015

NOTE:  "FAIR" INDICATES FEW OR NO CLOUDS BELOW 12,000 FEET
WITH NO SIGNIFICANT WEATHER AND/OR OBSTRUCTIONS TO VISIBILITY.

WYZ001-022200-
YELLOWSTONE NATIONAL PARK

CITY           SKY/WX    TMP DP  RH WIND       PRES   REMARKS
LK YELLOWSTONE   N/A     59  14  17 W14G22    30.00F
W YELLOWSTONE  NOT AVBL

$$
WYZ002>013-054>058-071-098>099-022200-
NORTHERN WYOMING

CITY           SKY/WX    TMP DP  RH WIND       PRES   REMARKS
JACKSON        PTSUNNY   64  27  24 S12G21    29.93F
CODY           FAIR      72  18  13 SW10G22   29.81F
GREYBULL       FAIR      75  12   9 CALM      29.77F
WORLAND        FAIR      77  17  10 NE6       29.77F
SHERIDAN       FAIR      75  26  16 NE3       29.78F
BUFFALO        FAIR      72  26  18 SE8       29.83F
GILLETTE       FAIR      74  25  16 N8        29.80F
HULETT         FAIR      73  23  15 NW9G17    29.81S
NEWCASTLE      FAIR      73  25  16 MISG      29.80F

$$
WYZ014>020-022>026-101>103-022200-
CENTRAL WYOMING

CITY           SKY/WX    TMP DP  RH WIND       PRES   REMARKS
BIG PINEY      FAIR      70  25  18 W14G26    29.98F
PINEDALE       CLOUDY    63  25  23 NW10G21   29.97F
DUBOIS         FAIR      63  16  16 NW25G38   29.93F
LANDER         FAIR      75  27  17 NW21      29.83F
RIVERTON       FAIR      76  23  14 SW16G25   29.84F
CASPER         FAIR      75  25  15 NW21G28   29.83F
DOUGLAS        FAIR      77  30  17 W14G25    29.83F

$$
WYZ021-027>030-104>119-022200-
SOUTHERN WYOMING

CITY           SKY/WX    TMP DP  RH WIND       PRES   REMARKS
EVANSTON       FAIR      71  25  17 W23G37    30.01F
KEMMERER       FAIR      64  27  24 W25G35    30.02F
FORT BRIDGER   MOCLDY    64  28  25 NW15G37   30.04F
ROCK SPRINGS   CLOUDY    61  32  33 W29G40    29.99F
DIXON          FAIR      66  36  32 NW24G32   30.03F
RAWLINS        LGT RAIN  61  34  36 SW17G29   30.00R
SARATOGA       CLOUDY    57  30  35 SW17G40   30.02F
LARAMIE        FAIR      65  27  23 W18G30    29.98F
CHEYENNE       FAIR      69  29  22 W16G33    29.94F
TORRINGTON     FAIR      82  34  17 W15G23    29.79F
PINE BLUFFS    DRIZZLE   61  45  55 SE9       29.91S

$$



USA.gov is the U.S. government's official web portal to all federal, state and local government web resources and services.